Zurück zum Katalog

SKY MUSTER 2

AktivKommunikationGEO
NORAD 41794·PAYLOAD·🇦🇺 Australia

Gestartet Oct 5, 2016 von Guiana Space Centre

Loading…

TLE

AktuellSource: Space-Track

Epoche: Sep 14, 2026, 11:38 UTC

1 41794U 16060B   26257.48517015 -.00000252  00000-0  00000-0 0  9991
2 41794   0.0192 235.5514 0001544 284.3239 153.0595  1.00273230 36419

Verfolge SKY MUSTER 2 in Echtzeit mit AllMySat

Download on the App Store